Weather History for Columbia Airport, CA

Change the Weather History Date:

Wednesday, August 14, 2013

  Actual Average (KMOD) Record (KMOD)
Temperature  
Mean Temperature 75 °F -  
Max Temperature 95 °F 94 °F 106 °F (1996)
Min Temperature 55 °F 62 °F 50 °F (1972)
Degree Days  
Heating Degree Days 0 0  
Month to date heating degree days 0  
Since 1 June heating degree days 3  
Since 1 July heating degree days 0  
Cooling Degree Days 10 13  
Month to date cooling degree days 191  
Year to date cooling degree days 1126  
Since 1 June cooling degree days 927  
Growing Degree Days 25 (Base 50)    
Moisture  
Dew Point 38 °F    
Average Humidity 31    
Maximum Humidity 54    
Minimum Humidity 9    
Precipitation  
Precipitation 0.00 in 0.00 in 0.09 in (1991)
Month to date precipitation 0.01  
Year to date precipitation 8.76  
Since 1 July precipitation 0.01  
Snow  
Snow 0.00 in - - ()
Month to date snowfall  
Since 1 June snowfall  
Since 1 July snowfall  
Snow Depth -    
Sea Level Pressure  
Sea Level Pressure 29.98 in    
Wind  
Wind Speed 2 mph (WSW)    
Max Wind Speed 10 mph    
Max Gust Speed -    
Visibility 10 miles    
Events      
T = Trace of Precipitation, MM = Missing Value Source: NWS Daily Summary

Daily Weather History Graph

Daily Weather History Graph

Search for Another Location

Airport:

Trip Planner

Search our weather history database for the weather conditions in past years. The results will help you decide how hot, cold, wet, or windy it might be!

Date:

Astronomy

Aug. 14, 2013 Rise Set
Actual Time 6:16 AM PDT 7:55 PM PDT
Civil Twilight 5:48 AM PDT 8:23 PM PDT
Nautical Twilight 5:14 AM PDT 8:57 PM PDT
Astronomical Twilight 4:37 AM PDT 9:33 PM PDT
Moon 2:12 PM PDT (8/14) No Moon Set
Length of Visible Light 14h 35m
Length of Day
13h 39m
First Quarter, 54% of the Moon is Illuminated
Aug 14
First Quarter
Aug 20
Full
Aug 28
Last Quarter
Sep 5
New
Sep 12
First Quarter

Hourly Weather History & Observations

Time (PDT) Temp. Dew Point Humidity Pressure Visibility Wind Dir Wind Speed Gust Speed Precip Events Conditions
12:15 AM 59.0 °F 39.2 °F 48% 30.00 in 10.0 mi Calm Calm - N/A   Clear
12:35 AM 59.0 °F 39.2 °F 48% 30.00 in 10.0 mi Calm Calm - N/A   Clear
12:55 AM 59.0 °F 39.2 °F 48% 30.00 in 10.0 mi Calm Calm - N/A   Clear
1:15 AM 57.2 °F 39.2 °F 51% 29.99 in 10.0 mi Calm Calm - N/A   Clear
1:35 AM 57.2 °F 39.2 °F 51% 29.99 in 10.0 mi Calm Calm - N/A   Clear
1:55 AM 57.2 °F 39.2 °F 51% 29.99 in 10.0 mi Calm Calm - N/A   Clear
2:15 AM 57.2 °F 39.2 °F 51% 29.99 in 10.0 mi Calm Calm - N/A   Clear
2:35 AM 57.2 °F 39.2 °F 51% 29.99 in 10.0 mi Calm Calm - N/A   Clear
2:55 AM 57.2 °F 39.2 °F 51% 29.98 in 10.0 mi Calm Calm - N/A   Clear
3:15 AM 57.2 °F 39.2 °F 51% 29.98 in 10.0 mi Calm Calm - N/A   Clear
3:35 AM 55.4 °F 39.2 °F 54% 29.98 in 10.0 mi Calm Calm - N/A   Clear
3:55 AM 57.2 °F 39.2 °F 51% 29.98 in 10.0 mi Calm Calm - N/A   Clear
4:15 AM 57.2 °F 39.2 °F 51% 29.98 in 10.0 mi Calm Calm - N/A   Clear
4:35 AM 57.2 °F 39.2 °F 51% 29.98 in 10.0 mi Calm Calm - N/A   Clear
4:55 AM 57.2 °F 39.2 °F 51% 29.98 in 10.0 mi Calm Calm - N/A   Clear
5:15 AM 55.4 °F 39.2 °F 54% 29.98 in 10.0 mi Calm Calm - N/A   Clear
5:35 AM 55.4 °F 39.2 °F 54% 29.98 in 10.0 mi Calm Calm - N/A   Clear
5:55 AM 55.4 °F 39.2 °F 54% 29.98 in 10.0 mi NNE 3.5 mph - N/A   Clear
6:15 AM 57.2 °F 39.2 °F 51% 29.98 in 10.0 mi Calm Calm - N/A   Clear
6:35 AM 57.2 °F 39.2 °F 51% 29.99 in 10.0 mi Calm Calm - N/A   Clear
6:55 AM 59.0 °F 41.0 °F 51% 29.99 in 10.0 mi Calm Calm - N/A   Clear
7:15 AM 62.6 °F 41.0 °F 45% 29.99 in 10.0 mi Calm Calm - N/A   Clear
7:35 AM 66.2 °F 44.6 °F 46% 29.99 in 10.0 mi Calm Calm - N/A   Clear
7:55 AM 71.6 °F 46.4 °F 41% 29.99 in 10.0 mi Calm Calm - N/A   Clear
8:15 AM 75.2 °F 44.6 °F 34% 29.99 in 10.0 mi Calm Calm - N/A   Clear
8:35 AM 80.6 °F 41.0 °F 24% 29.99 in 10.0 mi Calm Calm - N/A   Clear
8:55 AM 82.4 °F 37.4 °F 20% 29.99 in 10.0 mi Calm Calm - N/A   Clear
9:15 AM 84.2 °F 39.2 °F 20% 30.00 in 7.0 mi South 3.5 mph - N/A   Clear
9:35 AM 86.0 °F 37.4 °F 18% 30.00 in 10.0 mi South 3.5 mph - N/A   Clear
9:55 AM 86.0 °F 39.2 °F 19% 30.00 in 10.0 mi South 5.8 mph - N/A   Clear
10:15 AM 86.0 °F 37.4 °F 18% 30.00 in 10.0 mi SSW 3.5 mph - N/A   Clear
10:35 AM 86.0 °F 37.4 °F 18% 30.00 in 10.0 mi SSW 5.8 mph - N/A   Clear
10:55 AM 86.0 °F 35.6 °F 17% 30.00 in 10.0 mi South 4.6 mph - N/A   Clear
11:15 AM 89.6 °F 37.4 °F 16% 30.00 in 10.0 mi SW 6.9 mph - N/A   Clear
11:35 AM 89.6 °F 37.4 °F 16% 30.00 in 10.0 mi SSW 6.9 mph - N/A   Clear
12:35 PM 93.2 °F 35.6 °F 13% 30.00 in 10.0 mi WSW 6.9 mph - N/A   Clear
12:55 PM 91.4 °F 35.6 °F 14% 30.00 in 10.0 mi West 9.2 mph - N/A   Clear
1:15 PM 93.2 °F 32.0 °F 11% 29.99 in 10.0 mi SW 5.8 mph - N/A   Clear
1:35 PM 93.2 °F 32.0 °F 11% 29.99 in 10.0 mi SW 6.9 mph - N/A   Clear
1:55 PM 93.2 °F 32.0 °F 11% 29.99 in 10.0 mi West 10.4 mph - N/A   Clear
2:15 PM 93.2 °F 32.0 °F 11% 29.99 in 10.0 mi WSW 9.2 mph - N/A   Clear
2:35 PM 93.2 °F 32.0 °F 11% 29.99 in 10.0 mi West 8.1 mph - N/A   Clear
2:55 PM 93.2 °F 32.0 °F 11% 29.98 in 10.0 mi West 5.8 mph - N/A   Clear
3:15 PM 93.2 °F 32.0 °F 11% 29.98 in 10.0 mi West 8.1 mph - N/A   Clear
3:35 PM 95.0 °F 30.2 °F 10% 29.97 in 10.0 mi WSW 6.9 mph - N/A   Clear
3:55 PM 95.0 °F 28.4 °F 9% 29.97 in 10.0 mi WSW 8.1 mph - N/A   Clear
4:15 PM 93.2 °F 28.4 °F 10% 29.96 in 10.0 mi SW 6.9 mph - N/A   Clear
4:35 PM 93.2 °F 30.2 °F 11% 29.96 in 10.0 mi SW 8.1 mph - N/A   Clear
4:55 PM 93.2 °F 32.0 °F 11% 29.95 in 10.0 mi West 5.8 mph - N/A   Clear
5:15 PM 91.4 °F 32.0 °F 12% 29.95 in 10.0 mi WSW 4.6 mph - N/A   Clear
5:35 PM 91.4 °F 32.0 °F 12% 29.95 in 10.0 mi WSW 8.1 mph - N/A   Clear
5:55 PM 91.4 °F 32.0 °F 12% 29.94 in 10.0 mi SW 6.9 mph - N/A   Clear
6:15 PM 89.6 °F 35.6 °F 15% 29.94 in 10.0 mi SW 5.8 mph - N/A   Clear
6:35 PM 89.6 °F 37.4 °F 16% 29.94 in 10.0 mi West 6.9 mph - N/A   Clear
6:55 PM 86.0 °F 39.2 °F 19% 29.95 in 10.0 mi West 5.8 mph - N/A   Clear
7:15 PM 84.2 °F 39.2 °F 20% 29.95 in 10.0 mi WNW 5.8 mph - N/A   Clear
7:35 PM 82.4 °F 37.4 °F 20% 29.96 in 10.0 mi NW 5.8 mph - N/A   Clear
7:55 PM 80.6 °F 39.2 °F 23% 29.96 in 10.0 mi WNW 4.6 mph - N/A   Clear
8:15 PM 77.0 °F 39.2 °F 26% 29.96 in 10.0 mi NW 6.9 mph - N/A   Clear
8:35 PM 77.0 °F 41.0 °F 28% 29.96 in 10.0 mi NW 3.5 mph - N/A   Clear
8:55 PM 73.4 °F 41.0 °F 31% 29.97 in 10.0 mi Calm Calm - N/A   Clear
9:15 PM 73.4 °F 41.0 °F 31% 29.97 in 10.0 mi NE 4.6 mph - N/A   Clear
9:35 PM 71.6 °F 41.0 °F 33% 29.98 in 10.0 mi NE 3.5 mph - N/A   Clear
9:55 PM 68.0 °F 41.0 °F 37% 29.97 in 10.0 mi NE 3.5 mph - N/A   Clear
10:15 PM 66.2 °F 41.0 °F 40% 29.97 in 10.0 mi NNE 3.5 mph - N/A   Clear
10:35 PM 64.4 °F 41.0 °F 42% 29.97 in 10.0 mi NE 3.5 mph - N/A   Clear
10:55 PM 64.4 °F 41.0 °F 42% 29.97 in 10.0 mi ENE 3.5 mph - N/A   Clear
11:15 PM 62.6 °F 41.0 °F 45% 29.97 in 10.0 mi Calm Calm - N/A   Clear
11:35 PM 62.6 °F 41.0 °F 45% 29.97 in 10.0 mi Calm Calm - N/A   Clear
11:55 PM 62.6 °F 41.0 °F 45% 29.97 in 10.0 mi Calm Calm - N/A   Clear